EW5738 Weather Reports


time (UTC)temp
C
wind
direction
speed
KPH
gust
KPH
rain 1hr
cm
rain 24hr
cm
rain mn
cm
humidity
%
barometer
mb
20260503021556 23 135 3.2 17.7 0.00 0.05 0.00 70 1020.6
20260503020053 24 121 8.0 16.1 0.00 0.05 0.00 70 1020.7
20260503014552 23 141 8.0 22.5 0.00 0.05 0.00 71 1020.9
20260503013055 24 135 3.2 19.3 0.00 0.05 0.00 71 1021.1
20260503011554 23 133 3.2 14.5 0.00 0.05 0.00 73 1021.5
20260503010107 23 131 8.0 16.1 0.00 0.05 0.00 74 1021.7
20260503004539 23 117 4.8 11.3 0.00 0.05 0.00 75 1022.0
20260503003036 23 183 6.4 16.1 0.00 0.05 0.00 77 1022.2
20260503001533 22 197 3.2 12.9 0.00 0.05 0.00 78 1022.4
20260503000031 22 192 9.7 17.7 0.00 0.05 0.00 78 1022.4
20260502234529 22 137 6.4 19.3 0.00 0.05 0.00 79 1022.5
20260502233024 21 178 3.2 17.7 0.00 0.05 0.00 80 1022.6
20260502231522 21 137 6.4 16.1 0.00 0.05 0.00 80 1022.6
20260502230023 20 122 6.4 16.1 0.00 0.05 0.00 81 1022.6
20260502224515 19 196 6.4 17.7 0.00 0.05 0.00 84 1022.6
20260502223012 19 164 9.7 20.9 0.00 0.05 0.00 84 1022.4
20260502221508 18 163 8.0 16.1 0.00 0.05 0.00 85 1022.2
20260502220005 18 161 9.7 19.3 0.00 0.05 0.00 86 1022.1
20260502214503 18 193 8.0 19.3 0.00 0.05 0.00 87 1022.0
20260502213001 17 172 8.0 19.3 0.00 0.05 0.00 88 1021.7
20260502211607 17 160 6.4 22.5 0.00 0.05 0.00 89 1021.8
20260502210057 17 178 8.0 14.5 0.00 0.05 0.00 89 1021.7
20260502204555 17 137 6.4 17.7 0.00 0.10 0.00 89 1021.5
20260502203106 17 204 6.4 16.1 0.00 0.10 0.00 89 1021.4
20260502201604 17 201 1.6 9.7 0.00 0.10 0.00 89 1021.4
20260502200049 17 199 3.2 8.0 0.00 0.10 0.00 89 1021.3
20260502194551 17 183 1.6 8.0 0.00 0.10 0.00 89 1021.0
20260502193050 17 178 3.2 8.0 0.00 0.10 0.00 89 1021.0
20260502191546 17 193 1.6 8.0 0.00 0.10 0.00 89 1021.1
20260502190045 17 173 1.6 11.3 0.00 0.10 0.00 89 1020.9
20260502184543 17 157 1.6 8.0 0.00 0.10 0.00 89 1020.9
20260502183042 17 197 1.6 6.4 0.00 0.10 0.00 89 1020.7
20260502181540 17 216 1.6 4.8 0.00 0.10 0.00 89 1020.8
20260502163032 17 269 1.6 11.3 0.00 0.41 0.00 91 1021.3
20260502161526 18 210 1.6 8.0 0.00 0.41 0.00 91 1021.3
20260502151522 18 197 4.8 11.3 0.00 0.41 0.00 92 1021.7
20260502123011 19 161 3.2 8.0 0.00 0.43 0.41 93 1022.2
20260502121503 19 162 4.8 12.9 0.00 0.43 0.41 93 1022.6
20260502120113 19 187 8.0 14.5 0.00 0.43 0.41 93 1022.6
20260502114502 19 160 6.4 11.3 0.00 0.64 0.41 93 1022.5
20260502113001 19 159 6.4 11.3 0.00 0.64 0.41 93 1022.4
20260502111601 19 127 4.8 11.3 0.05 0.64 0.41 93 1022.3
20260502110100 19 173 6.4 11.3 0.05 0.64 0.41 93 1022.5
20260502110003 19 178 4.8 11.3 0.05 0.89 0.41 93 1022.5
20260502104658 19 167 4.8 9.7 0.05 0.89 0.41 92 1022.4
20260502103102 20 216 1.6 11.3 0.05 0.89 0.41 91 1022.4
20260502101615 20 174 8.0 19.3 0.03 0.86 0.36 91 1022.4
20260502100109 20 206 3.2 6.4 0.00 0.84 0.33 91 1022.3
20260502070050 21 187 4.8 9.7 0.00 0.84 0.33 88 1020.7
20260502064612 21 194 4.8 11.3 0.00 0.84 0.33 86 1020.5
20260502063053 21 152 4.8 11.3 0.00 0.84 0.33 85 1020.4
20260502061543 22 135 3.2 14.5 0.00 0.84 0.33 84 1020.6
20260502060045 22 124 4.8 14.5 0.00 0.84 0.33 84 1020.5
20260502054540 21 185 1.6 16.1 0.00 0.84 0.33 85 1020.5
20260502053040 21 129 6.4 14.5 0.00 0.84 0.33 85 1020.5
20260502051538 22 116 6.4 25.7 0.00 0.84 0.33 79 1020.5
20260502050036 23 131 9.7 25.7 0.00 0.84 0.33 76 1020.6
20260502044534 23 131 4.8 19.3 0.00 0.84 0.33 78 1020.6
20260502043044 22 133 8.0 25.7 0.00 0.84 0.33 79 1020.4
20260502041539 23 110 8.0 27.4 0.00 0.84 0.33 79 1020.4
20260502040030 23 124 9.7 25.7 0.00 0.84 0.33 79 1020.6
20260502034532 23 149 14.5 32.2 0.00 0.84 0.33 76 1020.6
20260502033030 23 112 6.4 17.7 0.00 0.84 0.33 78 1020.7
20260502031526 22 154 8.0 24.1 0.00 0.84 0.33 81 1020.8
20260502030024 23 118 6.4 20.9 0.00 0.84 0.33 76 1020.8
20260502024526 23 115 14.5 27.4 0.00 0.84 0.33 76 1021.1
20260502023021 23 130 6.4 17.7 0.00 0.84 0.33 76 1021.2